Location: Newark
(46.7000°N, 60.6000°W)
Time: 22:58:14
(UTC+00:00)

Vanguard 3 - Pass Details

Date: 06 November 2020
Orbit: 508 x 3262 km, 33.3° (Epoch: 29 November)

Event Time Altitude Azimuth Distance (km) Brightness Sun altitude
Rises 06:31:47 0° 219° (SW) 4,824 - -44.1°
Reaches altitude 10° 06:34:53 10° 210° (SSW) 4,183 - -43.6°
Exits shadow 06:43:06 34° 167° (SSE) 3,417 10.1 -42.4°
Maximum altitude 06:45:30 36° 149° (SSE) 3,516 10.2 -42.0°
Drops below altitude 10° 07:00:55 10° 93° (E) 6,065 12.2 -39.6°
Sets 07:06:33 0° 87° (E) 7,213 12.8 -38.7°
